Location: Anjeux
(47.8815°N, 6.2076°E)
Time: 11:51:50
(UTC+00:00)

AO-27 - Pass Details

Date: 16 December 2021
Orbit: 784 x 798 km, 98.9° (Epoch: 24 January)

Event Time Altitude Azimuth Distance (km) Brightness Sun altitude
Rises 05:38:43 0° 31° (NNE) 3,306 11.1 -15.8°
Reaches altitude 10° 05:42:18 10° 57° (ENE) 2,367 10.7 -15.2°
Maximum altitude 05:44:58 14° 88° (E) 2,092 10.9 -14.8°
Drops below altitude 10° 05:47:36 10° 119° (ESE) 2,353 11.5 -14.4°
Sets 05:51:07 0° 144° (SE) 3,273 11.9 -13.8°
